Lamar, CO

1:15 PM MST on December 05, 2019 (GMT -0700)
Lamar Municipal

Weather History for KLAA - October, 2019

Change the Weather History Date:

Thursday, October 24, 2019

  Actual Average Record
Temperature  
Mean Temperature 38 °F 49 °F  
Max Temperature 50 °F 67 °F 88 °F (2014)
Min Temperature 26 °F 32 °F 19 °F (2005)
Degree Days  
Heating Degree Days 27 16  
Month to date heating degree days 315 264  
Since 1 July heating degree days 321 347  
Cooling Degree Days 0 0  
Month to date cooling degree days 1 8  
Year to date cooling degree days 1406 1120  
Moisture  
Dew Point 27 °F    
Average Humidity 63    
Maximum Humidity 92    
Minimum Humidity 34    
Precipitation  
Precipitation T in 0.03 in 0.78 in (2018)
Month to date precipitation 0.13 0.66  
Year to date precipitation 7.88 14.28  
Sea Level Pressure  
Sea Level Pressure 30.37 in    
Wind  
Wind Speed 11 mph (NNE)    
Max Wind Speed 17 mph    
Max Gust Speed 24 mph    
Visibility 10 miles    
Events Snow    
T = Trace of Precipitation, MM = Missing Value Source: NWS Daily Summary

Daily Weather History Graph

Daily Weather History Graph

Search for Another Location

Airport or City:

Astronomy

Oct. 24, 2019 Rise Set
Actual Time 7:08 AM MDT 6:01 PM MDT
Civil Twilight 6:41 AM MDT 6:28 PM MDT
Nautical Twilight 6:10 AM MDT 6:58 PM MDT
Astronomical Twilight 5:39 AM MDT 7:29 PM MDT
Moon 2:46 AM MDT (10/24) 4:25 PM MDT (10/24)
Length of Visible Light 11h 46m
Length of Day
10h 53m
Waning Crescent, 16% of the Moon is Illuminated
Oct 24
Waning Crescent
Oct 27
New
Nov 4
First Quarter
Nov 12
Full
Nov 19
Last Quarter

Hourly Weather History & Observations

Time (MDT) Temp. Windchill Dew Point Humidity Pressure Visibility Wind Dir Wind Speed Gust Speed Precip Events Conditions
12:19 AM 35.1 °F 24.5 °F 30.9 °F 85% 30.31 in 10.0 mi NE 18.4 mph 28.8 mph 0.00 in   Overcast
12:53 AM 35.1 °F 25.2 °F 30.9 °F 85% 30.28 in 10.0 mi NNE 16.1 mph - 0.00 in   Overcast
1:24 AM 34.0 °F 23.4 °F 30.9 °F 89% 30.31 in 7.0 mi NNE 17.3 mph - 0.00 in Snow Light Snow
1:45 AM 34.0 °F 24.6 °F 30.0 °F 85% 30.31 in 9.0 mi NNE 13.8 mph - 0.00 in   Overcast
1:53 AM 34.0 °F 24.2 °F 30.0 °F 85% 30.28 in 10.0 mi NNE 15.0 mph 21.9 mph 0.00 in   Overcast
2:53 AM 35.1 °F 27.9 °F 30.0 °F 82% 30.29 in 10.0 mi North 9.2 mph - N/A   Overcast
3:53 AM 34.0 °F 23.4 °F 28.9 °F 82% 30.30 in 6.0 mi North 17.3 mph 23.0 mph 0.00 in Snow Light Snow
4:53 AM 34.0 °F 24.6 °F 28.0 °F 79% 30.31 in 10.0 mi NNE 13.8 mph - 0.00 in   Overcast
5:53 AM 33.1 °F 23.4 °F 27.0 °F 78% 30.35 in 10.0 mi NNE 13.8 mph - N/A   Overcast
6:53 AM 33.1 °F 23.9 °F 25.0 °F 72% 30.39 in 10.0 mi NNE 12.7 mph - N/A   Overcast
7:53 AM 33.1 °F 26.9 °F 26.1 °F 75% 30.44 in 10.0 mi North 6.9 mph - N/A   Overcast
8:53 AM 34.0 °F 26.0 °F 26.1 °F 73% 30.44 in 10.0 mi NNE 10.4 mph - N/A   Overcast
9:53 AM 36.0 °F 28.5 °F 27.0 °F 70% 30.47 in 10.0 mi NNE 10.4 mph - N/A   Overcast
10:53 AM 39.9 °F 32.1 °F 27.0 °F 60% 30.45 in 10.0 mi North 13.8 mph - N/A   Partly Cloudy
11:53 AM 42.1 °F 34.2 °F 26.1 °F 53% 30.43 in 10.0 mi NNE 16.1 mph - N/A   Mostly Cloudy
12:53 PM 46.0 °F 39.3 °F 25.0 °F 44% 30.38 in 10.0 mi North 16.1 mph 24.2 mph N/A   Clear
1:53 PM 48.0 °F - 21.0 °F 34% 30.34 in 10.0 mi NNE 12.7 mph - N/A   Clear
2:53 PM 48.0 °F - 21.9 °F 36% 30.34 in 10.0 mi NNE 11.5 mph 19.6 mph N/A   Scattered Clouds
3:53 PM 46.9 °F - 23.0 °F 39% 30.35 in 10.0 mi NNE 11.5 mph - N/A   Mostly Cloudy
4:53 PM 48.0 °F - 23.0 °F 37% 30.34 in 10.0 mi NNE 9.2 mph - N/A   Scattered Clouds
6:53 PM 42.1 °F - 21.9 °F 45% 30.37 in 10.0 mi Calm Calm - N/A   Clear
7:53 PM 32.0 °F 24.2 °F 27.0 °F 82% 30.41 in 10.0 mi SSW 9.2 mph - N/A   Clear
8:53 PM 32.0 °F 26.4 °F 28.0 °F 85% 30.42 in 10.0 mi SSW 5.8 mph - N/A   Clear
9:53 PM 28.9 °F 22.8 °F 27.0 °F 92% 30.44 in 10.0 mi WSW 5.8 mph - N/A   Clear
10:53 PM 28.0 °F 20.8 °F 25.0 °F 88% 30.43 in 10.0 mi WSW 6.9 mph - N/A   Clear
11:53 PM 26.1 °F 19.4 °F 24.1 °F 92% 30.43 in 10.0 mi SW 5.8 mph - N/A   Clear